Weather History for KGWB - January, 2013

Change the Weather History Date:

Friday, January 11, 2013

  Actual Average (KFWA) Record (KFWA)
Temperature  
Mean Temperature 45 °F 25 °F  
Max Temperature 55 °F 32 °F 57 °F (2013)
Min Temperature 35 °F 17 °F -11 °F (1979)
Degree Days  
Heating Degree Days 20 40  
Month to date heating degree days 439  
Since 1 July heating degree days 2767  
Cooling Degree Days 0 0  
Month to date cooling degree days 0  
Year to date cooling degree days 0  
Moisture  
Dew Point 43 °F    
Average Humidity 86    
Maximum Humidity 94    
Minimum Humidity 72    
Precipitation  
Precipitation 0.37 in 0.07 in 0.85 in (1905)
Month to date precipitation 0.88  
Year to date precipitation 0.88  
Snow  
Snow 0.00 in 0.30 in 5.50 in (2011)
Month to date snowfall 3.5  
Since 1 July snowfall 14.1  
Snow Depth -    
Sea Level Pressure  
Sea Level Pressure 29.88 in    
Wind  
Wind Speed 6 mph (South)    
Max Wind Speed 16 mph    
Max Gust Speed 21 mph    
Visibility 8 miles    
Events Rain    
T = Trace of Precipitation, MM = Missing Value Source: NWS Daily Summary

Daily Weather History Graph

Daily Weather History Graph

Search for Another Location

Airport or City:

Trip Planner

Search our weather history database for the weather conditions in past years. The results will help you decide how hot, cold, wet, or windy it might be!

Date:

Astronomy

Jan. 11, 2013 Rise Set
Actual Time 8:05 AM EST 5:31 PM EST
Civil Twilight 7:34 AM EST 6:02 PM EST
Nautical Twilight 7:00 AM EST 6:36 PM EST
Astronomical Twilight 6:27 AM EST 7:09 PM EST
Moon 7:37 AM EST (1/11) 5:49 PM EST (1/11)
Length of Visible Light 10h 27m
Length of Day
9h 26m
Waning Crescent, 0% of the Moon is Illuminated
Jan 11
Waning Crescent
Jan 11
New
Jan 18
First Quarter
Jan 26
Full
Feb 3
Last Quarter

Hourly Weather History & Observations

Time (EST) Temp. Windchill Dew Point Humidity Pressure Visibility Wind Dir Wind Speed Gust Speed Precip Events Conditions
12:15 AM 35.6 °F 30.7 °F 32.0 °F 87% 30.09 in 10.0 mi ESE 5.8 mph - N/A   Overcast
12:35 AM 37.4 °F 34.9 °F 32.0 °F 81% 30.08 in 10.0 mi East 3.5 mph - N/A   Overcast
1:15 AM 35.6 °F 28.6 °F 32.0 °F 87% 30.05 in 10.0 mi ESE 9.2 mph - N/A Rain Light Rain
1:35 AM 35.6 °F 29.9 °F 32.0 °F 87% 30.03 in 7.0 mi East 6.9 mph - N/A Rain Light Rain
1:55 AM 35.6 °F 29.9 °F 32.0 °F 87% 30.03 in 7.0 mi East 6.9 mph - N/A Rain Light Rain
2:15 AM 35.6 °F 30.7 °F 33.8 °F 93% 30.02 in 2.5 mi East 5.8 mph - 0.04 in Rain Rain
2:35 AM 35.6 °F 30.7 °F 33.8 °F 93% 30.00 in 5.0 mi East 5.8 mph - 0.04 in Rain Light Rain
2:55 AM 35.6 °F 29.2 °F 33.8 °F 93% 29.99 in 4.0 mi East 8.1 mph - 0.04 in   Mostly Cloudy
3:15 AM 37.4 °F 33.8 °F 35.6 °F 93% 29.98 in 5.0 mi ESE 4.6 mph - 0.01 in   Clear
3:35 AM 37.4 °F 32.1 °F 35.6 °F 93% 29.97 in 5.0 mi East 6.9 mph - 0.01 in   Mostly Cloudy
3:55 AM 37.4 °F 32.1 °F 35.6 °F 93% 29.95 in 5.0 mi East 6.9 mph - 0.01 in   Overcast
4:15 AM 37.4 °F 31.4 °F 35.6 °F 93% 29.93 in 5.0 mi East 8.1 mph - N/A   Overcast
4:35 AM 37.4 °F 30.8 °F 35.6 °F 93% 29.92 in 5.0 mi East 9.2 mph - N/A   Overcast
4:55 AM 39.2 °F 34.2 °F 35.6 °F 87% 29.91 in 7.0 mi East 6.9 mph - N/A   Drizzle
5:15 AM 37.4 °F 34.9 °F 35.6 °F 93% 29.90 in 5.0 mi SE 3.5 mph - N/A Rain Rain
5:35 AM 39.2 °F 35.0 °F 37.4 °F 93% 29.90 in 1.2 mi ESE 5.8 mph - 0.11 in Rain Light Rain
5:55 AM 41.0 °F 38.0 °F 37.4 °F 87% 29.89 in 1.8 mi SE 4.6 mph - 0.23 in Rain Light Rain
6:15 AM 41.0 °F 38.0 °F 39.2 °F 93% 29.89 in 3.0 mi SE 4.6 mph - 0.03 in Rain Light Rain
7:15 AM 44.6 °F 41.4 °F 42.8 °F 93% 29.84 in 3.0 mi SE 5.8 mph - N/A Rain Light Rain
7:35 AM 46.4 °F 42.9 °F 44.6 °F 93% 29.83 in 3.0 mi SE 6.9 mph - 0.03 in Rain Rain
7:55 AM 46.4 °F 41.5 °F 44.6 °F 93% 29.79 in 7.0 mi ESE 10.4 mph - 0.03 in   Mostly Cloudy
8:15 AM 46.4 °F 42.4 °F 44.6 °F 93% 29.78 in 7.0 mi SE 8.1 mph - N/A   Mostly Cloudy
8:35 AM 48.2 °F - 46.4 °F 93% 29.80 in 5.0 mi South 5.8 mph - N/A   Overcast
9:15 AM 50.0 °F - 48.2 °F 94% 29.83 in 5.0 mi SSW 6.9 mph - N/A   Overcast
9:35 AM 50.0 °F - 48.2 °F 94% 29.83 in 7.0 mi SSW 8.1 mph - N/A   Overcast
9:55 AM 51.8 °F - 50.0 °F 94% 29.83 in 10.0 mi South 8.1 mph - N/A   Overcast
10:15 AM 51.8 °F - 50.0 °F 94% 29.83 in 10.0 mi SSW 10.4 mph - N/A   Overcast
10:35 AM 51.8 °F - 50.0 °F 94% 29.83 in 7.0 mi SSW 5.8 mph - 0.01 in Rain Rain
10:55 AM 51.8 °F - 50.0 °F 94% 29.84 in 7.0 mi SW 8.1 mph - 0.02 in Rain Rain
11:15 AM 53.6 °F - 50.0 °F 88% 29.83 in 7.0 mi SW 6.9 mph - 0.01 in Rain Light Rain
11:35 AM 53.6 °F - 51.8 °F 94% 29.83 in 10.0 mi SW 6.9 mph - 0.01 in   Overcast
11:55 AM 53.6 °F - 50.0 °F 88% 29.83 in 10.0 mi SW 9.2 mph 18.4 mph 0.01 in   Overcast
12:35 PM 55.4 °F - 51.8 °F 88% 29.82 in 10.0 mi SW 10.4 mph - N/A   Mostly Cloudy
12:55 PM 55.4 °F - 50.0 °F 82% 29.81 in 10.0 mi SW 10.4 mph 16.1 mph N/A   Scattered Clouds
1:15 PM 55.4 °F - 50.0 °F 82% 29.81 in 10.0 mi SW 12.7 mph 17.3 mph N/A   Scattered Clouds
1:35 PM 55.4 °F - 48.2 °F 77% 29.82 in 10.0 mi SW 12.7 mph 18.4 mph N/A   Scattered Clouds
1:55 PM 55.4 °F - 46.4 °F 72% 29.82 in 10.0 mi West 16.1 mph 20.7 mph N/A   Mostly Cloudy
2:15 PM 55.4 °F - 46.4 °F 72% 29.83 in 10.0 mi WSW 9.2 mph - N/A   Overcast
2:35 PM 55.4 °F - 46.4 °F 72% 29.83 in 10.0 mi SW 6.9 mph - N/A   Mostly Cloudy
2:55 PM 53.6 °F - 46.4 °F 77% 29.85 in 10.0 mi West 8.1 mph - N/A   Overcast
3:15 PM 53.6 °F - 46.4 °F 77% 29.85 in 10.0 mi WSW 6.9 mph - N/A   Overcast
3:35 PM 55.4 °F - 46.4 °F 72% 29.85 in 10.0 mi SW 9.2 mph - N/A   Scattered Clouds
3:55 PM 53.6 °F - 46.4 °F 77% 29.85 in 10.0 mi SW 8.1 mph 16.1 mph N/A   Mostly Cloudy
4:15 PM 53.6 °F - 46.4 °F 77% 29.86 in 10.0 mi SW 6.9 mph - N/A   Overcast
4:35 PM 53.6 °F - 44.6 °F 72% 29.86 in 10.0 mi SW 10.4 mph 16.1 mph N/A   Overcast
4:55 PM 53.6 °F - 44.6 °F 72% 29.87 in 10.0 mi SW 6.9 mph - N/A   Scattered Clouds
5:15 PM 51.8 °F - 44.6 °F 76% 29.86 in 10.0 mi SSW 5.8 mph - N/A   Scattered Clouds
5:35 PM 51.8 °F - 44.6 °F 76% 29.87 in 10.0 mi SW 5.8 mph - N/A   Scattered Clouds
5:55 PM 51.8 °F - 44.6 °F 76% 29.87 in 10.0 mi SSW 4.6 mph - N/A   Mostly Cloudy
6:15 PM 50.0 °F - 44.6 °F 82% 29.87 in 10.0 mi Calm Calm - N/A   Scattered Clouds
6:35 PM 46.4 °F - 42.8 °F 87% 29.88 in 10.0 mi Calm Calm - N/A   Clear
6:55 PM 46.4 °F - 42.8 °F 87% 29.88 in 10.0 mi Calm Calm - N/A   Clear
7:15 PM 46.4 °F - 42.8 °F 87% 29.88 in 10.0 mi Calm Calm - N/A   Clear
7:35 PM 46.4 °F - 42.8 °F 87% 29.88 in 10.0 mi Calm Calm - N/A   Clear
7:55 PM 46.4 °F - 42.8 °F 87% 29.87 in 10.0 mi Calm Calm - N/A   Clear
8:15 PM 46.4 °F - 42.8 °F 87% 29.87 in 10.0 mi Calm Calm - N/A   Clear
8:35 PM 48.2 °F - 44.6 °F 87% 29.87 in 10.0 mi South 3.5 mph - N/A   Clear
8:55 PM 48.2 °F - 44.6 °F 87% 29.87 in 10.0 mi South 3.5 mph - N/A   Clear
9:15 PM 48.2 °F - 44.6 °F 87% 29.86 in 10.0 mi South 4.6 mph - N/A   Clear
9:35 PM 48.2 °F - 44.6 °F 87% 29.86 in 10.0 mi South 4.6 mph - N/A   Clear
9:55 PM 48.2 °F - 44.6 °F 87% 29.85 in 10.0 mi South 3.5 mph - N/A   Clear
10:15 PM 50.0 °F - 44.6 °F 82% 29.85 in 10.0 mi South 3.5 mph - N/A   Clear
10:35 PM 48.2 °F - 44.6 °F 87% 29.86 in 10.0 mi South 3.5 mph - N/A   Clear
10:55 PM 48.2 °F - 44.6 °F 87% 29.86 in 10.0 mi South 4.6 mph - N/A   Clear
11:15 PM 48.2 °F - 44.6 °F 87% 29.86 in 10.0 mi South 4.6 mph - N/A   Clear
11:35 PM 50.0 °F - 44.6 °F 82% 29.85 in 10.0 mi South 3.5 mph - N/A   Clear
11:55 PM 50.0 °F - 44.6 °F 82% 29.85 in 10.0 mi South 5.8 mph - N/A   Clear